User: anonymous   Login
Location: Unspecified
(0.0000°N, 0.0000°E)
Time: 22:07:40
(UTC+00:00)
Language:

HO-68 - Orbit

View from above orbital plane
View from above orbital plane
View from above satellite
View from above satellite

Ground track
Ground track

The orbit data is extracted from the following two-line orbital elements,

1 36122U 09072B   18343.73582565 -.00000014  00000-0  72400-4 0  9995
2 36122 100.0733 350.1242 0008340  67.4333 292.7654 13.16347677431758
Epoch (UTC): 09 December 2018 17:39:35
Eccentricity: 0.0008340
inclination: 100.0733°
perigee height: 1192 km
apogee height: 1205 km
right ascension of ascending node: 350.1242°
argument of perigee: 67.4333°
revolutions per day: 13.16347677
mean anomaly at epoch: 292.7654°
orbit number at epoch: 43175

The dashed part of the orbit path shows where the satellite is in the earth's shadow,  

DLR